| time (UTC) | temp F | wind direction | speed MPH | gust MPH | rain 1hr in | rain 24hr in | rain mn in | humidity % | barometer mb |
| 20260905055512 | 58 | 291 | 16.0 | 22.0 | 0.00 | 0.07 | 0.07 | 60 | 1006.3 |
| 20260905055010 | 59 | 307 | 14.0 | 24.0 | 0.00 | 0.07 | 0.07 | 63 | 1006.2 |
| 20260905054518 | 58 | 322 | 19.0 | 24.0 | 0.00 | 0.07 | 0.07 | 61 | 1006.1 |
| 20260905054017 | 59 | 287 | 12.0 | 28.0 | 0.00 | 0.07 | 0.07 | 62 | 1006.0 |
| 20260905053506 | 59 | 308 | 17.0 | 28.0 | 0.00 | 0.07 | 0.07 | 61 | 1006.0 |
| 20260905053005 | 58 | 317 | 16.0 | 27.0 | 0.00 | 0.07 | 0.07 | 59 | 1005.9 |
| 20260905052504 | 59 | 297 | 18.0 | 32.0 | 0.00 | 0.07 | 0.07 | 61 | 1005.9 |
| 20260905052006 | 58 | 316 | 17.0 | 32.0 | 0.00 | 0.07 | 0.07 | 60 | 1005.9 |
| 20260905051509 | 59 | 300 | 15.0 | 30.0 | 0.00 | 0.07 | 0.07 | 61 | 1005.8 |
| 20260905051007 | 58 | 308 | 20.0 | 28.0 | 0.00 | 0.07 | 0.07 | 60 | 1005.6 |
| 20260905050506 | 59 | 330 | 17.0 | 24.0 | 0.00 | 0.07 | 0.07 | 60 | 1005.7 |
| 20260905050013 | 59 | 288 | 14.0 | 28.0 | 0.00 | 0.07 | 0.07 | 62 | 1005.7 |
| 20260905045511 | 59 | 303 | 17.0 | 28.0 | 0.00 | 0.07 | 0.07 | 59 | 1005.5 |
| 20260905045012 | 59 | 314 | 15.0 | 28.0 | 0.00 | 0.07 | 0.07 | 60 | 1005.3 |
| 20260905044523 | 59 | 294 | 17.0 | 28.0 | 0.00 | 0.07 | 0.07 | 60 | 1005.5 |
| 20260905044005 | 59 | 304 | 20.0 | 31.0 | 0.00 | 0.07 | 0.07 | 59 | 1005.4 |
| 20260905043514 | 59 | 310 | 22.0 | 31.0 | 0.00 | 0.07 | 0.07 | 59 | 1005.4 |
| 20260905043014 | 59 | 330 | 15.0 | 33.0 | 0.00 | 0.07 | 0.07 | 60 | 1005.5 |
| 20260905042506 | 59 | 314 | 20.0 | 33.0 | 0.00 | 0.07 | 0.07 | 58 | 1005.4 |
| 20260905042014 | 59 | 306 | 19.0 | 32.0 | 0.00 | 0.07 | 0.07 | 59 | 1005.3 |
| 20260905041519 | 59 | 324 | 18.0 | 27.0 | 0.00 | 0.07 | 0.07 | 61 | 1005.4 |
| 20260905041018 | 59 | 322 | 15.0 | 28.0 | 0.00 | 0.07 | 0.07 | 61 | 1005.2 |
| 20260905040505 | 60 | 316 | 16.0 | 31.0 | 0.00 | 0.07 | 0.07 | 62 | 1005.2 |
| 20260905040011 | 60 | 297 | 20.0 | 31.0 | 0.00 | 0.07 | 0.07 | 61 | 1005.1 |
| 20260905035506 | 60 | 282 | 15.0 | 23.0 | 0.00 | 0.07 | 0.07 | 63 | 1005.2 |
| 20260905035010 | 60 | 298 | 15.0 | 23.0 | 0.00 | 0.07 | 0.07 | 63 | 1005.3 |
| 20260905034507 | 60 | 310 | 11.0 | 25.0 | 0.00 | 0.07 | 0.07 | 64 | 1005.3 |
| 20260905034011 | 59 | 308 | 15.0 | 28.0 | 0.00 | 0.07 | 0.07 | 63 | 1005.3 |
| 20260905033507 | 59 | 310 | 17.0 | 28.0 | 0.00 | 0.07 | 0.07 | 62 | 1005.2 |
| 20260905033034 | 59 | 295 | 19.0 | 32.0 | 0.00 | 0.07 | 0.07 | 63 | 1005.4 |
| 20260905032514 | 60 | 290 | 19.0 | 32.0 | 0.00 | 0.07 | 0.07 | 58 | 1005.5 |
| 20260905032010 | 60 | 313 | 17.0 | 32.0 | 0.00 | 0.07 | 0.07 | 60 | 1005.5 |
| 20260905031531 | 60 | 317 | 24.0 | 32.0 | 0.00 | 0.07 | 0.07 | 58 | 1005.4 |
| 20260905031014 | 60 | 312 | 21.0 | 33.0 | 0.00 | 0.07 | 0.07 | 59 | 1005.5 |
| 20260905030514 | 60 | 316 | 23.0 | 30.0 | 0.00 | 0.07 | 0.07 | 59 | 1005.3 |
| 20260905030032 | 60 | 312 | 19.0 | 28.0 | 0.00 | 0.07 | 0.07 | 60 | 1005.4 |
| 20260905025510 | 61 | 339 | 14.0 | 29.0 | 0.00 | 0.07 | 0.07 | 62 | 1005.3 |
| 20260905025018 | 60 | 310 | 18.0 | 29.0 | 0.00 | 0.07 | 0.07 | 60 | 1005.4 |
| 20260905024514 | 60 | 318 | 18.0 | 28.0 | 0.00 | 0.07 | 0.07 | 60 | 1005.3 |
| 20260905024006 | 60 | 299 | 15.0 | 26.0 | 0.00 | 0.07 | 0.07 | 62 | 1005.3 |
| 20260905023510 | 59 | 334 | 17.0 | 26.0 | 0.00 | 0.07 | 0.07 | 64 | 1005.3 |
| 20260905023018 | 57 | 297 | 14.0 | 27.0 | 0.00 | 0.07 | 0.07 | 72 | 1005.5 |
| 20260905022511 | 56 | 312 | 14.0 | 31.0 | 0.00 | 0.07 | 0.07 | 71 | 1005.5 |
| 20260905022015 | 56 | 301 | 12.0 | 31.0 | 0.00 | 0.07 | 0.07 | 68 | 1005.7 |
| 20260905021516 | 58 | 313 | 13.0 | 21.0 | 0.00 | 0.07 | 0.07 | 68 | 1005.7 |
| 20260905021014 | 58 | 329 | 12.0 | 24.0 | 0.00 | 0.07 | 0.07 | 69 | 1005.7 |
| 20260905020513 | 58 | 287 | 13.0 | 29.0 | 0.00 | 0.07 | 0.07 | 69 | 1005.7 |
| 20260905020012 | 59 | 304 | 17.0 | 29.0 | 0.00 | 0.07 | 0.07 | 68 | 1005.7 |
| 20260905015520 | 59 | 335 | 14.0 | 27.0 | 0.00 | 0.07 | 0.07 | 69 | 1005.7 |
| 20260905015012 | 60 | 304 | 17.0 | 28.0 | 0.00 | 0.07 | 0.07 | 68 | 1005.8 |
| 20260905014535 | 60 | 323 | 19.0 | 29.0 | 0.00 | 0.07 | 0.07 | 68 | 1005.7 |
| 20260905014015 | 60 | 320 | 18.0 | 30.0 | 0.00 | 0.07 | 0.07 | 70 | 1005.7 |
| 20260905013508 | 59 | 314 | 19.0 | 30.0 | 0.00 | 0.07 | 0.07 | 68 | 1005.8 |
| 20260905013016 | 59 | 311 | 17.0 | 28.0 | 0.00 | 0.07 | 0.07 | 69 | 1005.9 |
| 20260905012509 | 59 | 302 | 15.0 | 27.0 | 0.00 | 0.07 | 0.07 | 70 | 1006.0 |
| 20260905012020 | 59 | 316 | 16.0 | 27.0 | 0.00 | 0.07 | 0.07 | 70 | 1006.0 |
| 20260905011522 | 58 | 297 | 18.0 | 27.0 | 0.00 | 0.07 | 0.07 | 70 | 1006.2 |
| 20260905011013 | 58 | 311 | 15.0 | 26.0 | 0.00 | 0.07 | 0.07 | 72 | 1006.4 |
| 20260905010513 | 58 | 343 | 16.0 | 28.0 | 0.00 | 0.07 | 0.07 | 72 | 1006.0 |
| 20260905010040 | 57 | 308 | 15.0 | 28.0 | 0.00 | 0.07 | 0.07 | 75 | 1006.0 |
| 20260905005509 | 57 | 316 | 14.0 | 31.0 | 0.00 | 0.07 | 0.07 | 79 | 1005.9 |
| 20260905005019 | 56 | 323 | 16.0 | 31.0 | 0.00 | 0.07 | 0.07 | 79 | 1005.8 |
| 20260905004526 | 56 | 320 | 17.0 | 28.0 | 0.00 | 0.07 | 0.07 | 80 | 1005.8 |
| 20260905004015 | 56 | 343 | 18.0 | 29.0 | 0.00 | 0.07 | 0.07 | 82 | 1005.7 |
| 20260905003515 | 56 | 332 | 15.0 | 31.0 | 0.00 | 0.07 | 0.07 | 82 | 1005.7 |
| 20260905003024 | 55 | 321 | 17.0 | 31.0 | 0.00 | 0.07 | 0.07 | 82 | 1005.6 |
| 20260905002519 | 55 | 340 | 19.0 | 31.0 | 0.00 | 0.07 | 0.07 | 83 | 1005.5 |
| 20260905002016 | 55 | 330 | 17.0 | 31.0 | 0.00 | 0.06 | 0.06 | 83 | 1005.7 |
| 20260905001514 | 55 | 354 | 18.0 | 32.0 | 0.00 | 0.06 | 0.06 | 83 | 1005.7 |
| 20260905001012 | 55 | 357 | 20.0 | 32.0 | 0.00 | 0.06 | 0.06 | 83 | 1005.6 |
| 20260905000517 | 55 | 343 | 18.0 | 31.0 | 0.00 | 0.06 | 0.06 | 83 | 1005.6 |
| 20260905000032 | 55 | 335 | 17.0 | 28.0 | 0.00 | 0.06 | 0.06 | 83 | 1005.9 |
| 20260904235513 | 55 | 349 | 20.0 | 34.0 | 0.00 | 0.06 | 0.06 | 83 | 1005.6 |
| 20260904235013 | 54 | 6 | 22.0 | 34.0 | 0.00 | 0.06 | 0.06 | 83 | 1005.6 |
| 20260904234531 | 54 | 351 | 20.0 | 32.0 | 0.00 | 0.06 | 0.06 | 83 | 1005.7 |
| 20260904234017 | 54 | 10 | 23.0 | 32.0 | 0.00 | 0.06 | 0.06 | 83 | 1005.8 |
| 20260904233515 | 54 | 346 | 19.0 | 32.0 | 0.00 | 0.06 | 0.06 | 83 | 1005.9 |
| 20260904233034 | 54 | 11 | 16.0 | 27.0 | 0.00 | 0.06 | 0.06 | 84 | 1005.8 |
| 20260904232516 | 54 | 314 | 17.0 | 33.0 | 0.00 | 0.06 | 0.06 | 84 | 1006.0 |
| 20260904232006 | 54 | 340 | 15.0 | 33.0 | 0.00 | 0.06 | 0.06 | 84 | 1005.8 |
| 20260904231509 | 54 | 26 | 11.0 | 24.0 | 0.00 | 0.06 | 0.06 | 84 | 1005.7 |
| 20260904231003 | 54 | 333 | 15.0 | 26.0 | 0.00 | 0.06 | 0.06 | 84 | 1005.9 |
| 20260904230507 | 54 | 343 | 15.0 | 26.0 | 0.00 | 0.06 | 0.06 | 84 | 1006.1 |
| 20260904230006 | 54 | 4 | 10.0 | 22.0 | 0.00 | 0.06 | 0.06 | 84 | 1006.0 |
| 20260904225502 | 54 | 7 | 14.0 | 26.0 | 0.00 | 0.06 | 0.06 | 84 | 1006.1 |
| 20260904225003 | 54 | 360 | 16.0 | 26.0 | 0.00 | 0.06 | 0.06 | 84 | 1006.3 |
| 20260904224505 | 54 | 28 | 10.0 | 29.0 | 0.00 | 0.05 | 0.05 | 84 | 1006.7 |
| 20260904224005 | 54 | 357 | 14.0 | 30.0 | 0.00 | 0.05 | 0.05 | 84 | 1006.8 |
| 20260904223503 | 54 | 346 | 15.0 | 30.0 | 0.00 | 0.05 | 0.05 | 84 | 1006.5 |
| 20260904223004 | 54 | 351 | 14.0 | 28.0 | 0.00 | 0.05 | 0.05 | 85 | 1006.7 |
| 20260904222504 | 53 | 338 | 14.0 | 28.0 | 0.00 | 0.05 | 0.05 | 85 | 1006.9 |
| 20260904222004 | 53 | 350 | 14.0 | 26.0 | 0.00 | 0.05 | 0.05 | 85 | 1006.5 |
| 20260904221519 | 53 | 28 | 14.0 | 24.0 | 0.00 | 0.05 | 0.05 | 85 | 1006.6 |
| 20260904221006 | 53 | 339 | 16.0 | 30.0 | 0.00 | 0.05 | 0.05 | 85 | 1006.8 |
| 20260904220504 | 53 | 5 | 8.0 | 30.0 | 0.00 | 0.05 | 0.05 | 85 | 1006.0 |
| 20260904220019 | 53 | 356 | 12.0 | 24.0 | 0.00 | 0.05 | 0.05 | 85 | 1007.1 |
| 20260904215510 | 53 | 4 | 13.0 | 27.0 | 0.00 | 0.05 | 0.05 | 85 | 1006.7 |
| 20260904215003 | 53 | 19 | 11.0 | 27.0 | 0.00 | 0.05 | 0.05 | 85 | 1006.7 |
| 20260904214505 | 53 | 1 | 13.0 | 30.0 | 0.00 | 0.05 | 0.05 | 85 | 1006.8 |
| 20260904214005 | 53 | 9 | 12.0 | 31.0 | 0.00 | 0.05 | 0.05 | 85 | 1006.8 |
| 20260904213504 | 53 | 1 | 15.0 | 31.0 | 0.00 | 0.05 | 0.05 | 85 | 1006.8 |
| 20260904213006 | 53 | 15 | 15.0 | 28.0 | 0.00 | 0.04 | 0.04 | 85 | 1006.7 |
| 20260904212504 | 52 | 347 | 13.0 | 20.0 | 0.00 | 0.04 | 0.04 | 85 | 1006.7 |
| 20260904212004 | 52 | 23 | 8.0 | 16.0 | 0.00 | 0.04 | 0.04 | 85 | 1006.6 |
| 20260904211508 | 52 | 12 | 6.0 | 25.0 | 0.00 | 0.04 | 0.04 | 85 | 1006.4 |
| 20260904211004 | 53 | 39 | 8.0 | 25.0 | 0.00 | 0.04 | 0.04 | 85 | 1006.7 |
| 20260904210504 | 53 | 11 | 11.0 | 23.0 | 0.00 | 0.04 | 0.04 | 85 | 1007.1 |
| 20260904210019 | 52 | 352 | 11.0 | 23.0 | 0.00 | 0.04 | 0.04 | 84 | 1007.5 |
| 20260904205506 | 53 | 55 | 9.0 | 27.0 | 0.00 | 0.04 | 0.04 | 84 | 1007.7 |
| 20260904205009 | 53 | 37 | 15.0 | 29.0 | 0.00 | 0.04 | 0.04 | 84 | 1008.0 |
| 20260904204512 | 53 | 4 | 17.0 | 32.0 | 0.00 | 0.04 | 0.04 | 83 | 1007.7 |
| 20260904204004 | 53 | 345 | 18.0 | 32.0 | 0.00 | 0.04 | 0.04 | 83 | 1007.6 |
| 20260904203504 | 53 | 8 | 15.0 | 29.0 | 0.00 | 0.04 | 0.04 | 83 | 1007.2 |
| 20260904203006 | 53 | 2 | 12.0 | 27.0 | 0.00 | 0.03 | 0.03 | 83 | 1007.3 |
| 20260904202503 | 53 | 24 | 9.0 | 27.0 | 0.00 | 0.03 | 0.03 | 84 | 1007.3 |
| 20260904202008 | 53 | 341 | 16.0 | 25.0 | 0.00 | 0.03 | 0.03 | 84 | 1007.1 |
| 20260904201508 | 52 | 328 | 8.0 | 20.0 | 0.00 | 0.03 | 0.03 | 84 | 1007.2 |
| 20260904201006 | 53 | 339 | 12.0 | 20.0 | 0.00 | 0.03 | 0.03 | 84 | 1007.5 |
| 20260904200507 | 52 | 1 | 12.0 | 20.0 | 0.00 | 0.03 | 0.03 | 84 | 1007.5 |
| 20260904200005 | 52 | 347 | 10.0 | 19.0 | 0.00 | 0.03 | 0.03 | 84 | 1007.8 |
| 20260904195508 | 52 | 8 | 11.0 | 25.0 | 0.00 | 0.03 | 0.03 | 84 | 1007.7 |
| 20260904195007 | 52 | 13 | 13.0 | 25.0 | 0.00 | 0.03 | 0.03 | 84 | 1007.7 |
| 20260904194514 | 52 | 2 | 6.0 | 25.0 | 0.00 | 0.03 | 0.03 | 84 | 1007.5 |
| 20260904194009 | 52 | 357 | 10.0 | 25.0 | 0.00 | 0.03 | 0.03 | 84 | 1007.3 |
| 20260904193505 | 53 | 6 | 12.0 | 21.0 | 0.00 | 0.03 | 0.03 | 84 | 1007.5 |
| 20260904193021 | 53 | 355 | 8.0 | 21.0 | 0.00 | 0.03 | 0.03 | 84 | 1007.6 |
| 20260904192506 | 53 | 12 | 11.0 | 21.0 | 0.00 | 0.03 | 0.03 | 84 | 1007.6 |
| 20260904192004 | 53 | 22 | 10.0 | 22.0 | 0.00 | 0.03 | 0.03 | 84 | 1007.8 |
| 20260904191505 | 53 | 15 | 11.0 | 22.0 | 0.00 | 0.03 | 0.03 | 84 | 1007.9 |
| 20260904191005 | 53 | 360 | 10.0 | 19.0 | 0.00 | 0.03 | 0.03 | 84 | 1007.9 |
| 20260904190507 | 53 | 344 | 10.0 | 20.0 | 0.00 | 0.03 | 0.03 | 83 | 1007.9 |
| 20260904190008 | 53 | 5 | 12.0 | 21.0 | 0.00 | 0.03 | 0.03 | 83 | 1008.3 |
| 20260904185507 | 53 | 8 | 10.0 | 22.0 | 0.00 | 0.03 | 0.03 | 82 | 1008.5 |
| 20260904185007 | 53 | 345 | 14.0 | 22.0 | 0.00 | 0.03 | 0.03 | 81 | 1008.6 |
| 20260904184514 | 53 | 353 | 11.0 | 22.0 | 0.00 | 0.03 | 0.03 | 82 | 1008.5 |
| 20260904184004 | 53 | 360 | 11.0 | 24.0 | 0.00 | 0.03 | 0.03 | 82 | 1007.9 |
| 20260904183509 | 53 | 358 | 12.0 | 24.0 | 0.00 | 0.03 | 0.03 | 82 | 1007.9 |
| 20260904183009 | 53 | 13 | 13.0 | 23.0 | 0.00 | 0.03 | 0.03 | 81 | 1007.9 |
| 20260904182516 | 53 | 333 | 14.0 | 26.0 | 0.00 | 0.03 | 0.03 | 81 | 1008.2 |
| 20260904182013 | 53 | 335 | 15.0 | 26.0 | 0.00 | 0.03 | 0.03 | 81 | 1008.3 |
| 20260904181510 | 54 | 356 | 13.0 | 25.0 | 0.01 | 0.03 | 0.03 | 80 | 1008.1 |
| 20260904181011 | 54 | 12 | 14.0 | 26.0 | 0.00 | 0.02 | 0.02 | 81 | 1007.9 |
| 20260904180512 | 54 | 12 | 15.0 | 28.0 | 0.00 | 0.02 | 0.02 | 81 | 1007.9 |
| 20260904180038 | 53 | 14 | 15.0 | 29.0 | 0.00 | 0.02 | 0.02 | 82 | 1007.9 |
| 20260904175506 | 53 | 29 | 18.0 | 29.0 | 0.00 | 0.02 | 0.02 | 83 | 1007.9 |
| 20260904175008 | 53 | 16 | 12.0 | 25.0 | 0.00 | 0.02 | 0.02 | 84 | 1007.7 |
| 20260904174527 | 53 | 12 | 12.0 | 24.0 | 0.00 | 0.02 | 0.02 | 84 | 1007.6 |
| 20260904174010 | 53 | 15 | 9.0 | 22.0 | 0.00 | 0.02 | 0.02 | 84 | 1007.8 |
| 20260904173510 | 53 | 11 | 12.0 | 23.0 | 0.00 | 0.02 | 0.02 | 84 | 1007.8 |
| 20260904173016 | 53 | 31 | 9.0 | 23.0 | 0.01 | 0.02 | 0.02 | 84 | 1007.8 |
| 20260904172510 | 53 | 11 | 11.0 | 23.0 | 0.01 | 0.02 | 0.02 | 84 | 1008.0 |
| 20260904172011 | 53 | 359 | 8.0 | 27.0 | 0.01 | 0.02 | 0.02 | 84 | 1008.3 |
| 20260904171523 | 53 | 8 | 12.0 | 27.0 | 0.00 | 0.01 | 0.01 | 84 | 1009.0 |
| 20260904171006 | 53 | 6 | 14.0 | 24.0 | 0.00 | 0.01 | 0.01 | 84 | 1009.2 |
| 20260904170512 | 53 | 14 | 10.0 | 27.0 | 0.00 | 0.01 | 0.01 | 84 | 1009.1 |
| 20260904170020 | 53 | 316 | 14.0 | 28.0 | 0.01 | 0.01 | 0.01 | 84 | 1009.5 |
| 20260904165506 | 53 | 341 | 12.0 | 29.0 | 0.01 | 0.01 | 0.01 | 85 | 1009.5 |
| 20260904165015 | 53 | 35 | 13.0 | 32.0 | 0.01 | 0.01 | 0.01 | 85 | 1009.8 |
| 20260904164519 | 53 | 345 | 13.0 | 32.0 | 0.01 | 0.01 | 0.01 | 85 | 1010.1 |
| 20260904164015 | 53 | 337 | 11.0 | 23.0 | 0.01 | 0.01 | 0.01 | 85 | 1009.8 |
| 20260904163516 | 52 | 13 | 11.0 | 29.0 | 0.01 | 0.01 | 0.01 | 85 | 1009.9 |
| 20260904163034 | 52 | 355 | 15.0 | 29.0 | 0.00 | 0.00 | 0.00 | 85 | 1010.2 |
| 20260904162508 | 53 | 72 | 11.0 | 32.0 | 0.00 | 0.00 | 0.00 | 85 | 1010.1 |
| 20260904162009 | 53 | 8 | 14.0 | 32.0 | 0.00 | 0.00 | 0.00 | 84 | 1010.6 |
| 20260904161517 | 53 | 3 | 13.0 | 28.0 | 0.00 | 0.00 | 0.00 | 84 | 1011.0 |
| 20260904161012 | 53 | 19 | 13.0 | 28.0 | 0.00 | 0.00 | 0.00 | 84 | 1011.0 |
| 20260904160510 | 53 | 8 | 9.0 | 25.0 | 0.00 | 0.00 | 0.00 | 83 | 1011.0 |
| 20260904160028 | 53 | 358 | 14.0 | 25.0 | 0.00 | 0.00 | 0.00 | 83 | 1011.3 |
| 20260904155512 | 53 | 29 | 13.0 | 25.0 | 0.00 | 0.00 | 0.00 | 82 | 1011.4 |
| 20260904155007 | 54 | 345 | 13.0 | 25.0 | 0.00 | 0.00 | 0.00 | 82 | 1011.6 |
| 20260904154532 | 54 | 326 | 9.0 | 27.0 | 0.00 | 0.00 | 0.00 | 81 | 1011.7 |
| 20260904154013 | 54 | 2 | 13.0 | 29.0 | 0.00 | 0.00 | 0.00 | 81 | 1011.7 |
| 20260904153517 | 54 | 326 | 14.0 | 29.0 | 0.00 | 0.00 | 0.00 | 81 | 1011.5 |
| 20260904153032 | 54 | 351 | 14.0 | 25.0 | 0.00 | 0.00 | 0.00 | 81 | 1011.5 |
| 20260904152511 | 54 | 2 | 16.0 | 25.0 | 0.00 | 0.00 | 0.00 | 80 | 1011.7 |
| 20260904152006 | 54 | 4 | 13.0 | 24.0 | 0.00 | 0.00 | 0.00 | 80 | 1011.7 |
| 20260904151514 | 54 | 341 | 13.0 | 33.0 | 0.00 | 0.00 | 0.00 | 80 | 1011.7 |
| 20260904151015 | 54 | 331 | 14.0 | 33.0 | 0.00 | 0.00 | 0.00 | 80 | 1011.9 |
| 20260904150512 | 54 | 56 | 15.0 | 31.0 | 0.00 | 0.00 | 0.00 | 80 | 1011.9 |
| 20260904150020 | 54 | 6 | 13.0 | 28.0 | 0.00 | 0.00 | 0.00 | 81 | 1011.9 |
| 20260904145513 | 54 | 49 | 12.0 | 23.0 | 0.00 | 0.00 | 0.00 | 81 | 1011.9 |
| 20260904145013 | 54 | 15 | 13.0 | 23.0 | 0.00 | 0.00 | 0.00 | 81 | 1012.1 |
| 20260904144516 | 54 | 8 | 10.0 | 23.0 | 0.00 | 0.00 | 0.00 | 82 | 1012.2 |
| 20260904144015 | 54 | 5 | 9.0 | 19.0 | 0.00 | 0.00 | 0.00 | 82 | 1012.2 |
| 20260904143513 | 53 | 333 | 8.0 | 24.0 | 0.00 | 0.00 | 0.00 | 82 | 1012.0 |
| 20260904143034 | 53 | 18 | 13.0 | 24.0 | 0.00 | 0.00 | 0.00 | 81 | 1012.1 |
| 20260904142519 | 53 | 4 | 14.0 | 24.0 | 0.00 | 0.00 | 0.00 | 82 | 1012.0 |
| 20260904142006 | 53 | 35 | 9.0 | 27.0 | 0.00 | 0.00 | 0.00 | 82 | 1011.9 |
| 20260904141511 | 53 | 2 | 12.0 | 27.0 | 0.00 | 0.00 | 0.00 | 82 | 1012.0 |
| 20260904141004 | 53 | 359 | 9.0 | 26.0 | 0.00 | 0.00 | 0.00 | 82 | 1012.0 |
| 20260904140510 | 53 | 20 | 11.0 | 26.0 | 0.00 | 0.00 | 0.00 | 82 | 1012.1 |
| 20260904140011 | 53 | 9 | 13.0 | 23.0 | 0.00 | 0.00 | 0.00 | 82 | 1012.3 |
| 20260904135503 | 53 | 24 | 10.0 | 29.0 | 0.00 | 0.00 | 0.00 | 81 | 1012.3 |
| 20260904135008 | 54 | 10 | 14.0 | 31.0 | 0.00 | 0.00 | 0.00 | 80 | 1012.4 |
| 20260904134508 | 54 | 15 | 15.0 | 31.0 | 0.00 | 0.00 | 0.00 | 79 | 1012.6 |
| 20260904134002 | 54 | 20 | 13.0 | 37.0 | 0.00 | 0.00 | 0.00 | 79 | 1012.7 |
| 20260904133504 | 55 | 10 | 18.0 | 38.0 | 0.00 | 0.00 | 0.00 | 79 | 1012.8 |
| 20260904133007 | 55 | 4 | 19.0 | 38.0 | 0.00 | 0.00 | 0.00 | 79 | 1012.8 |
| 20260904132510 | 55 | 10 | 18.0 | 30.0 | 0.00 | 0.00 | 0.00 | 79 | 1013.0 |
| 20260904132009 | 55 | 14 | 13.0 | 30.0 | 0.00 | 0.00 | 0.00 | 78 | 1013.0 |
| 20260904131504 | 55 | 58 | 15.0 | 36.0 | 0.00 | 0.00 | 0.00 | 77 | 1013.2 |
| 20260904131004 | 55 | 339 | 17.0 | 36.0 | 0.00 | 0.00 | 0.00 | 77 | 1013.3 |
| 20260904130505 | 56 | 345 | 22.0 | 32.0 | 0.00 | 0.00 | 0.00 | 77 | 1013.4 |
| 20260904130018 | 55 | 9 | 19.0 | 32.0 | 0.00 | 0.00 | 0.00 | 77 | 1013.2 |
| 20260904125509 | 55 | 33 | 16.0 | 33.0 | 0.00 | 0.00 | 0.00 | 76 | 1013.3 |
| 20260904125005 | 55 | 344 | 20.0 | 35.0 | 0.00 | 0.00 | 0.00 | 76 | 1013.1 |
| 20260904124518 | 55 | 1 | 14.0 | 35.0 | 0.00 | 0.00 | 0.00 | 76 | 1013.3 |
| 20260904124004 | 56 | 349 | 18.0 | 32.0 | 0.00 | 0.00 | 0.00 | 75 | 1013.3 |
| 20260904123514 | 56 | 351 | 16.0 | 36.0 | 0.00 | 0.00 | 0.00 | 75 | 1013.3 |
| 20260904123012 | 56 | 341 | 18.0 | 38.0 | 0.00 | 0.00 | 0.00 | 75 | 1013.3 |
| 20260904122504 | 56 | 329 | 18.0 | 41.0 | 0.00 | 0.00 | 0.00 | 75 | 1013.2 |
| 20260904122005 | 56 | 8 | 17.0 | 41.0 | 0.00 | 0.00 | 0.00 | 75 | 1013.0 |
| 20260904121506 | 56 | 128 | 15.0 | 31.0 | 0.00 | 0.00 | 0.00 | 75 | 1013.1 |
| 20260904121004 | 56 | 18 | 17.0 | 31.0 | 0.00 | 0.00 | 0.00 | 75 | 1013.2 |
| 20260904120515 | 56 | 4 | 20.0 | 32.0 | 0.00 | 0.00 | 0.00 | 74 | 1013.6 |
| 20260904120011 | 56 | 24 | 18.0 | 32.0 | 0.00 | 0.00 | 0.00 | 74 | 1013.1 |
| 20260904115508 | 56 | 354 | 14.0 | 24.0 | 0.00 | 0.00 | 0.00 | 74 | 1013.4 |
| 20260904115010 | 56 | 21 | 13.0 | 24.0 | 0.00 | 0.00 | 0.00 | 74 | 1013.2 |
| 20260904114509 | 56 | 349 | 14.0 | 27.0 | 0.00 | 0.00 | 0.00 | 74 | 1013.2 |
| 20260904114011 | 56 | 330 | 14.0 | 29.0 | 0.00 | 0.00 | 0.00 | 74 | 1013.0 |
| 20260904113508 | 56 | 17 | 16.0 | 29.0 | 0.00 | 0.00 | 0.00 | 74 | 1013.3 |
| 20260904113007 | 56 | 8 | 15.0 | 29.0 | 0.00 | 0.00 | 0.00 | 74 | 1013.5 |
| 20260904112513 | 56 | 20 | 14.0 | 27.0 | 0.00 | 0.00 | 0.00 | 74 | 1013.4 |
| 20260904112009 | 55 | 37 | 15.0 | 27.0 | 0.00 | 0.00 | 0.00 | 73 | 1013.6 |
| 20260904111530 | 55 | 10 | 16.0 | 29.0 | 0.00 | 0.00 | 0.00 | 74 | 1013.6 |
| 20260904111011 | 55 | 11 | 16.0 | 29.0 | 0.00 | 0.00 | 0.00 | 73 | 1013.8 |
| 20260904110506 | 55 | 27 | 18.0 | 26.0 | 0.00 | 0.00 | 0.00 | 74 | 1013.9 |
| 20260904110024 | 55 | 29 | 9.0 | 19.0 | 0.00 | 0.00 | 0.00 | 73 | 1014.0 |
| 20260904105506 | 54 | 3 | 12.0 | 23.0 | 0.00 | 0.00 | 0.00 | 73 | 1014.1 |
| 20260904105008 | 54 | 23 | 11.0 | 22.0 | 0.00 | 0.00 | 0.00 | 73 | 1014.2 |
| 20260904104510 | 54 | 14 | 9.0 | 19.0 | 0.00 | 0.00 | 0.00 | 73 | 1014.1 |
| 20260904104008 | 54 | 347 | 7.0 | 20.0 | 0.00 | 0.00 | 0.00 | 73 | 1014.2 |
| 20260904103513 | 54 | 346 | 8.0 | 20.0 | 0.00 | 0.00 | 0.00 | 73 | 1014.4 |
| 20260904103021 | 54 | 337 | 9.0 | 18.0 | 0.00 | 0.00 | 0.00 | 73 | 1014.5 |
| 20260904102507 | 54 | 339 | 11.0 | 20.0 | 0.00 | 0.00 | 0.00 | 72 | 1014.5 |
| 20260904102013 | 54 | 12 | 13.0 | 20.0 | 0.00 | 0.00 | 0.00 | 72 | 1014.5 |
| 20260904101514 | 54 | 346 | 12.0 | 20.0 | 0.00 | 0.00 | 0.00 | 72 | 1014.6 |
| 20260904101018 | 54 | 360 | 10.0 | 19.0 | 0.00 | 0.00 | 0.00 | 73 | 1014.8 |
| 20260904100517 | 54 | 335 | 11.0 | 19.0 | 0.00 | 0.00 | 0.00 | 73 | 1015.0 |
| 20260904100012 | 54 | 348 | 10.0 | 18.0 | 0.00 | 0.00 | 0.00 | 73 | 1014.9 |
| 20260904095518 | 54 | 8 | 9.0 | 20.0 | 0.00 | 0.00 | 0.00 | 72 | 1015.0 |
| 20260904095012 | 54 | 30 | 9.0 | 20.0 | 0.00 | 0.00 | 0.00 | 72 | 1015.0 |
| 20260904094513 | 54 | 335 | 11.0 | 28.0 | 0.00 | 0.00 | 0.00 | 72 | 1015.0 |
| 20260904094013 | 54 | 360 | 14.0 | 27.0 | 0.00 | 0.00 | 0.00 | 72 | 1014.9 |
| 20260904093510 | 54 | 3 | 14.0 | 27.0 | 0.00 | 0.00 | 0.00 | 72 | 1015.0 |
| 20260904093018 | 54 | 339 | 15.0 | 27.0 | 0.00 | 0.00 | 0.00 | 72 | 1014.9 |
| 20260904092519 | 54 | 349 | 14.0 | 22.0 | 0.00 | 0.00 | 0.00 | 72 | 1014.8 |
| 20260904092010 | 54 | 14 | 10.0 | 23.0 | 0.00 | 0.00 | 0.00 | 73 | 1014.7 |
| 20260904091523 | 53 | 10 | 14.0 | 26.0 | 0.00 | 0.00 | 0.00 | 72 | 1014.7 |
| 20260904091011 | 53 | 342 | 13.0 | 26.0 | 0.00 | 0.00 | 0.00 | 73 | 1014.6 |
| 20260904090514 | 53 | 350 | 13.0 | 24.0 | 0.00 | 0.00 | 0.00 | 73 | 1014.6 |
| 20260904090042 | 53 | 26 | 12.0 | 31.0 | 0.00 | 0.00 | 0.00 | 73 | 1014.5 |
| 20260904085507 | 53 | 21 | 12.0 | 31.0 | 0.00 | 0.00 | 0.00 | 72 | 1014.4 |
| 20260904085022 | 53 | 14 | 16.0 | 31.0 | 0.00 | 0.00 | 0.00 | 73 | 1014.3 |
| 20260904084524 | 52 | 350 | 12.0 | 24.0 | 0.00 | 0.00 | 0.00 | 73 | 1014.5 |
| 20260904084007 | 52 | 7 | 12.0 | 21.0 | 0.00 | 0.00 | 0.00 | 73 | 1014.4 |
| 20260904083517 | 52 | 29 | 7.0 | 20.0 | 0.00 | 0.00 | 0.00 | 73 | 1014.3 |
| 20260904083011 | 52 | 10 | 9.0 | 17.0 | 0.00 | 0.00 | 0.00 | 74 | 1014.4 |
| 20260904082519 | 52 | 33 | 7.0 | 23.0 | 0.00 | 0.00 | 0.00 | 73 | 1014.6 |
| 20260904082011 | 52 | 10 | 9.0 | 23.0 | 0.00 | 0.00 | 0.00 | 73 | 1014.6 |
| 20260904081529 | 52 | 6 | 10.0 | 26.0 | 0.00 | 0.00 | 0.00 | 72 | 1014.7 |
| 20260904081013 | 52 | 8 | 12.0 | 29.0 | 0.00 | 0.00 | 0.00 | 72 | 1014.9 |
| 20260904080516 | 52 | 22 | 14.0 | 29.0 | 0.00 | 0.00 | 0.00 | 72 | 1014.9 |
| 20260904080012 | 52 | 355 | 14.0 | 22.0 | 0.00 | 0.00 | 0.00 | 72 | 1015.0 |
| 20260904075516 | 52 | 10 | 10.0 | 21.0 | 0.00 | 0.00 | 0.00 | 72 | 1015.0 |
| 20260904075013 | 52 | 351 | 10.0 | 23.0 | 0.00 | 0.00 | 0.00 | 71 | 1015.0 |
| 20260904074532 | 52 | 22 | 11.0 | 32.0 | 0.00 | 0.00 | 0.00 | 71 | 1015.2 |
| 20260904074015 | 52 | 8 | 13.0 | 32.0 | 0.00 | 0.00 | 0.00 | 71 | 1015.3 |
| 20260904073514 | 52 | 12 | 12.0 | 27.0 | 0.00 | 0.00 | 0.00 | 71 | 1015.3 |
| 20260904073031 | 52 | 28 | 15.0 | 30.0 | 0.00 | 0.00 | 0.00 | 71 | 1015.1 |
| 20260904072512 | 52 | 31 | 17.0 | 34.0 | 0.00 | 0.00 | 0.00 | 71 | 1015.2 |
| 20260904072027 | 52 | 322 | 17.0 | 34.0 | 0.00 | 0.00 | 0.00 | 71 | 1015.2 |
| 20260904071530 | 52 | 15 | 13.0 | 28.0 | 0.00 | 0.00 | 0.00 | 71 | 1015.1 |
| 20260904071012 | 52 | 21 | 13.0 | 23.0 | 0.00 | 0.00 | 0.00 | 71 | 1015.2 |
| 20260904070517 | 52 | 345 | 9.0 | 23.0 | 0.00 | 0.00 | 0.00 | 71 | 1015.3 |
| 20260904070032 | 52 | 8 | 8.0 | 28.0 | 0.00 | 0.00 | 0.00 | 71 | 1015.3 |
| 20260904065509 | 53 | 345 | 13.0 | 28.0 | 0.00 | 0.00 | 0.00 | 70 | 1015.3 |
| 20260904065019 | 53 | 62 | 13.0 | 23.0 | 0.00 | 0.00 | 0.00 | 70 | 1015.6 |
| 20260904064525 | 53 | 345 | 12.0 | 21.0 | 0.00 | 0.00 | 0.00 | 70 | 1015.7 |
| 20260904064021 | 53 | 52 | 10.0 | 22.0 | 0.00 | 0.00 | 0.00 | 70 | 1015.8 |
| 20260904063520 | 53 | 12 | 9.0 | 22.0 | 0.00 | 0.00 | 0.00 | 70 | 1016.0 |
| 20260904063032 | 53 | 359 | 10.0 | 26.0 | 0.00 | 0.00 | 0.00 | 69 | 1015.9 |
| 20260904062518 | 53 | 336 | 7.0 | 26.0 | 0.00 | 0.00 | 0.00 | 70 | 1016.0 |
| 20260904062015 | 53 | 18 | 5.0 | 19.0 | 0.00 | 0.00 | 0.00 | 70 | 1016.3 |
| 20260904061525 | 53 | 16 | 9.0 | 19.0 | 0.00 | 0.00 | 0.00 | 69 | 1016.5 |
| 20260904061018 | 54 | 8 | 8.0 | 19.0 | 0.00 | 0.00 | 0.00 | 68 | 1016.5 |
| 20260904060516 | 54 | 38 | 7.0 | 19.0 | 0.00 | 0.00 | 0.00 | 69 | 1016.5 |
| 20260904060035 | 54 | 353 | 9.0 | 18.0 | 0.00 | 0.00 | 0.00 | 69 | 1016.7 |